GW2465 Weather Reports


time (UTC)temp
F
wind
direction
speed
knots
gust
knots
rain 1hr
in
rain 24hr
in
rain mn
in
humidity
%
barometer
mb
20260506044544 64 200 1.7 5.2 0.00 0.00 0.00 49 1009.7
20260506043041 64 180 1.7 5.2 0.00 0.00 0.00 48 1009.8
20260506041557 65 179 1.7 4.3 0.00 0.00 0.00 47 1009.9
20260506040052 65 215 1.7 4.3 0.00 0.00 0.00 47 1009.9
20260506034547 65 205 1.7 4.3 0.00 0.00 0.00 47 1010.1
20260506033044 65 194 1.7 5.2 0.00 0.00 0.00 47 1009.9
20260506031547 66 190 1.7 6.1 0.00 0.00 0.00 47 1009.9
20260506030042 66 188 1.7 4.3 0.00 0.00 0.00 46 1009.9
20260506024541 66 212 1.7 4.3 0.00 0.00 0.00 46 1010.0
20260506023045 66 205 1.7 4.3 0.00 0.00 0.00 47 1010.1
20260506021544 66 188 0.9 3.5 0.00 0.00 0.00 47 1010.1
20260506020047 67 190 0.9 2.6 0.00 0.00 0.00 47 1010.2
20260506014551 68 190 0.0 2.6 0.00 0.00 0.00 46 1010.0
20260506013041 69 190 0.9 3.5 0.00 0.00 0.00 43 1010.0
20260506011544 71 182 0.9 4.3 0.00 0.00 0.00 41 1009.9
20260506010041 71 184 3.5 7.0 0.00 0.00 0.00 38 1009.7
20260506004543 72 187 1.7 7.0 0.00 0.00 0.00 39 1009.4
20260506003038 72 232 2.6 7.0 0.00 0.00 0.00 39 1009.2
20260506001605 72 173 2.6 6.1 0.00 0.00 0.00 40 1009.0
20260506000047 72 212 3.5 8.7 0.00 0.00 0.00 39 1008.8
20260505234549 72 205 3.5 8.7 0.00 0.00 0.00 39 1008.7
20260505233040 73 207 3.5 8.7 0.00 0.00 0.00 39 1008.6
20260505231551 73 193 3.5 10.4 0.00 0.00 0.00 39 1008.6
20260505230045 73 211 4.3 9.6 0.00 0.00 0.00 38 1008.6
20260505224544 73 207 4.3 8.7 0.00 0.00 0.00 39 1008.6
20260505223055 73 202 3.5 7.8 0.00 0.00 0.00 39 1008.5
20260505221552 73 202 3.5 9.6 0.00 0.00 0.00 40 1008.4
20260505220047 73 185 4.3 12.2 0.00 0.00 0.00 40 1008.3
20260505214600 73 212 4.3 10.4 0.00 0.00 0.00 40 1008.2
20260505213057 73 226 4.3 8.7 0.00 0.00 0.00 39 1008.2
20260505211557 73 198 4.3 9.6 0.00 0.00 0.00 40 1008.1
20260505210049 74 202 4.3 13.9 0.00 0.00 0.00 38 1007.9
20260505204544 74 213 4.3 10.4 0.00 0.00 0.00 38 1008.0
20260505203046 75 184 5.2 11.3 0.00 0.00 0.00 37 1007.9
20260505201559 76 204 5.2 10.4 0.00 0.00 0.00 37 1008.0
20260505200048 76 185 7.0 12.2 0.00 0.00 0.00 36 1008.1
20260505194543 76 184 4.3 11.3 0.00 0.00 0.00 37 1008.1
20260505193049 76 220 5.2 13.0 0.00 0.00 0.00 36 1008.1
20260505191552 76 78 5.2 12.2 0.00 0.00 0.00 36 1008.5
20260505190055 76 196 6.1 13.0 0.00 0.00 0.00 34 1008.6
20260505184552 76 216 4.3 13.9 0.00 0.00 0.00 35 1008.9
20260505183048 76 197 4.3 13.0 0.00 0.00 0.00 34 1008.8
20260505181540 76 231 5.2 12.2 0.00 0.00 0.00 34 1009.2
20260505180050 76 198 4.3 11.3 0.00 0.00 0.00 37 1009.3
20260505174542 74 220 5.2 11.3 0.00 0.00 0.00 40 1009.0
20260505173049 74 276 4.3 8.7 0.00 0.00 0.00 40 1009.4
20260505171548 74 194 4.3 9.6 0.00 0.00 0.00 40 1009.4
20260505170049 75 205 5.2 9.6 0.00 0.00 0.00 38 1009.6
20260505164543 74 221 5.2 13.0 0.00 0.00 0.00 39 1009.6
20260505163041 74 142 2.6 11.3 0.00 0.00 0.00 43 1009.8
20260505161548 74 259 5.2 12.2 0.00 0.00 0.00 43 1010.2
20260505153104 71 228 3.5 7.8 0.00 0.00 0.00 49 1010.3
20260505151547 71 223 3.5 7.8 0.00 0.00 0.00 50 1010.6
20260505150108 70 209 3.5 8.7 0.00 0.00 0.00 50 1010.5
20260505124609 65 201 2.6 7.0 0.00 0.00 0.00 55 1010.7
20260505123114 64 217 1.7 6.1 0.00 0.00 0.00 58 1010.6
20260505121549 63 191 2.6 7.0 0.00 0.00 0.00 59 1010.5
20260505120052 62 188 2.6 7.8 0.00 0.00 0.00 61 1010.5
20260505114553 62 217 2.6 6.1 0.00 0.00 0.00 61 1010.3
20260505113054 61 209 2.6 6.1 0.00 0.00 0.00 63 1010.3
20260505111557 60 199 2.6 5.2 0.00 0.00 0.00 64 1010.3
20260505101549 59 215 2.6 7.0 0.00 0.00 0.00 66 1009.8
20260505100044 59 221 3.5 7.0 0.00 0.00 0.00 66 1009.7
20260505094550 59 193 2.6 7.0 0.00 0.00 0.00 66 1009.5
20260505093049 59 187 1.7 5.2 0.00 0.00 0.00 66 1009.6
20260505091548 58 195 2.6 4.3 0.00 0.00 0.00 69 1009.4
20260505090052 57 200 1.7 4.3 0.00 0.00 0.00 72 1009.4
20260505084541 57 197 1.7 4.3 0.00 0.00 0.00 73 1009.5
20260505083043 58 204 0.9 4.3 0.00 0.00 0.00 72 1009.5
20260505081550 58 187 1.7 5.2 0.00 0.00 0.00 72 1009.3
20260505080050 59 217 3.5 7.0 0.00 0.00 0.00 69 1009.4
20260505074546 57 195 0.0 3.5 0.00 0.00 0.00 67 1009.5
20260505073054 57 0 0.0 0.0 0.00 0.00 0.00 66 1009.4
20260505071545 57 0 0.0 1.7 0.00 0.00 0.00 65 1009.5
20260505070052 57 0 0.0 2.6 0.00 0.00 0.00 64 1009.7
20260505064540 58 0 0.0 0.9 0.00 0.00 0.00 62 1009.7
20260505063046 58 0 0.0 2.6 0.00 0.00 0.00 61 1009.8
20260505061542 59 0 0.0 2.6 0.00 0.00 0.00 60 1009.9
20260505060045 59 207 0.9 4.3 0.00 0.00 0.00 59 1009.9